Regional Weather Roundup
Issued by NWS

Home | Current Version | Previous Version | Graphics & Text | Print | Product List | Glossary Off
Versions: 1 2 3 4 5 6 7 8 9 10 11 12 13 14 15 16 17 18 19 20 21 22 23 24 25 26 27 28 29 30 31 32 33 34 35 36 37 38 39 40 41 42 43 44 45 46 47 48 49 50

000
ASUS43 KMKX 230021
RWRWI

WISCONSIN REGIONAL WEATHER ROUNDUP
NATIONAL WEATHER SERVICE MILWAUKEE/SULLIVAN WI
700 PM CDT TUE AUG 22 2017

NOTE: "FAIR" INDICATES FEW OR NO CLOUDS BELOW 12,000 FEET WITH NO
SIGNIFICANT WEATHER AND/OR OBSTRUCTIONS TO VISIBILITY.

WIZ001-002-006>008-014>016-023>028-230100-
NORTHWEST WISCONSIN

CITY           SKY/WX    TMP DP  RH WIND       PRES   REMARKS
SUPERIOR ARPT    N/A     65  55  69 W7        29.96S
6HR MIN TEMP:  63; 6HR MAX TEMP:  69;

ASHLAND        CLEAR     65  52  62 W9        29.93S
6HR MIN TEMP:  64; 6HR MAX TEMP:  71; 6HR PCP: TRACE;

HAYWARD        CLOUDY    62  55  77 N5        29.98S
6HR MIN TEMP:  62; 6HR MAX TEMP:  69; 6HR PCP: TRACE;

SIREN          MOSUNNY   69  48  47 NW7       30.00S
6HR MIN TEMP:  68; 6HR MAX TEMP:  72;

CUMBERLAND     CLEAR     64  45  48 W10       30.00S
RICE LAKE      CLEAR     68  47  47 W9G16     30.01S
6HR MIN TEMP:  68; 6HR MAX TEMP:  72;

CHETEK         CLEAR     68  49  51 NW6       29.99F
6HR MIN TEMP:  68; 6HR MAX TEMP:  73;

LADYSMITH      MOCLDY    68  49  52 W12       30.00S
6HR MIN TEMP:  67; 6HR MAX TEMP:  73;

EAU CLAIRE     CLEAR     70  47  43 NW9       29.99S
6HR MIN TEMP:  70; 6HR MAX TEMP:  74;

MENOMONIE      CLEAR     70  47  43 NW9       30.00S
6HR MIN TEMP:  70; 6HR MAX TEMP:  74;

NEW RICHMOND   MOSUNNY   69  44  40 NW15      30.02S
6HR MIN TEMP:  68; 6HR MAX TEMP:  73;

OSCEOLA        MOSUNNY   70  47  44 W7        30.04S
6HR MIN TEMP:  69; 6HR MAX TEMP:  74;

$$

WIZ003>005-009-010-017-018-230100-
NORTH CENTRAL WISCONSIN

CITY           SKY/WX    TMP DP  RH WIND       PRES   REMARKS
MANITOWISH WTR CLOUDY    62  51  68 W17G26    29.94R
6HR MIN TEMP:  62; 6HR MAX TEMP:  68;

ARBOR VITAE    PTCLDY    63  51  65 NW12G18   29.93S
6HR MIN TEMP:  62; 6HR MAX TEMP:  72;

WOODRUFF       PTCLDY    63  51  65 NW12G18   29.93S
6HR MIN TEMP:  62; 6HR MAX TEMP:  72;

RHINELANDER    CLEAR     63  51  65 W13G18    29.94S
6HR MIN TEMP:  63; 6HR MAX TEMP:  70; 6HR PCP: TRACE;

EAGLE RIVER    CLOUDY    61  48  62 W8        29.92S
6HR MIN TEMP:  59; 6HR MAX TEMP:  68;

LAND O LAKES   PTCLDY    57  53  85 W3        29.94S
6HR MIN TEMP:  57; 6HR MAX TEMP:  68;

PHILLIPS       CLOUDY    60  52  75 NW7       29.97S
6HR MIN TEMP:  60; 6HR MAX TEMP:  69;

TOMAHAWK         N/A     63  49  60 W8G18     29.96S
6HR MIN TEMP:  60; 6HR MAX TEMP:  70;

MEDFORD        MOCLDY    64  48  56 NW6       29.97S
6HR MIN TEMP:  63; 6HR MAX TEMP:  69;

MERRILL        NOT AVBL
$$

WIZ029-030-035-036-043>047-230100-
CENTRAL WISCONSIN

CITY           SKY/WX    TMP DP  RH WIND       PRES   REMARKS
WAUSAU         CLEAR     68  47  46 NW12      29.94R
6HR MIN TEMP:  67; 6HR MAX TEMP:  73;

MOSINEE        PTCLDY    66  48  52 NW13      29.97R
MARSHFIELD     PTCLDY    68  46  45 NW14G21   29.97R
6HR MIN TEMP:  68; 6HR MAX TEMP:  73;

STEVENS POINT  PTCLDY    67  47  49 W9        29.96S
6HR MIN TEMP:  67; 6HR MAX TEMP:  71;

WAUPACA        PTCLDY    72  48  42 W10G17    29.94R
6HR MIN TEMP:  72; 6HR MAX TEMP:  76;

WAUTOMA        MOCLDY    71  50  47 W9        29.96R
6HR MIN TEMP:  70; 6HR MAX TEMP:  75;

WISC RAPIDS    CLEAR     70  49  47 NW14G23   29.97S
6HR MIN TEMP:  70; 6HR MAX TEMP:  75;

CAMP DOUGLAS   PTCLDY    70  50  49 W9        29.98S
$$

WIZ011>013-019>022-031-037>040-048>050-230100-
NORTHEAST WISCONSIN

CITY           SKY/WX    TMP DP  RH WIND       PRES   REMARKS
ANTIGO         PTCLDY    64  48  57 NW18G24   29.94R
6HR MIN TEMP:  64; 6HR MAX TEMP:  69;

SHAWANO        PTCLDY    68  50  51 NW5       29.91S
6HR MIN TEMP:  68; 6HR MAX TEMP:  76;

OCONTO         PTCLDY    67  50  53 NW6       29.89R
6HR MIN TEMP:  67; 6HR MAX TEMP:  75;

STURGEON BAY   CLOUDY    68  52  56 NW12      29.89R
6HR MIN TEMP:  68; 6HR MAX TEMP:  73;

GREEN BAY      PTCLDY    68  56  65 NW6       29.90R
6HR MIN TEMP:  68; 6HR MAX TEMP:  75;

MANITOWOC      CLOUDY    71  50  47 W7        29.91R
6HR MIN TEMP:  71; 6HR MAX TEMP:  74;

APPLETON       MOCLDY    70  45  40 NW9       29.91R
CLINTONVILLE   MOCLDY    70  45  40 NW14      29.91S
OSHKOSH        PTCLDY    69  49  48 W12       29.93R
6HR MIN TEMP:  69; 6HR MAX TEMP:  74;

$$

WIZ032>034-041-042-053>061-230100-
SOUTHWEST WISCONSIN

CITY           SKY/WX    TMP DP  RH WIND       PRES   REMARKS
LA CROSSE      PTCLDY    75  50  41 W12       29.99F
SPARTA         MOCLDY    69  51  51 W3        30.00S
6HR MIN TEMP:  69; 6HR MAX TEMP:  74;

VIROQUA        CLEAR     67  52  57 W7        30.02S
6HR MIN TEMP:  67; 6HR MAX TEMP:  71;

BOSCOBEL       CLEAR     73  49  42 NW5       30.02R
6HR MIN TEMP:  72; 6HR MAX TEMP:  79;

PRAIRIE DU CHI CLEAR     71  46  39 W8        30.02S
6HR MIN TEMP:  71; 6HR MAX TEMP:  76;

PLATTEVILLE    CLEAR     69  51  52 NW12      30.02S
6HR MIN TEMP:  69; 6HR MAX TEMP:  74;

$$

WIZ056-057-062-063-064-067-068-230100-
SOUTH CENTRAL WISCONSIN

CITY           SKY/WX    TMP DP  RH WIND       PRES   REMARKS
REEDSBURG      CLEAR     70  49  48 W8        29.98F
6HR MIN TEMP:  70; 6HR MAX TEMP:  75;

BARABOO/DELLS  CLEAR     70  46  42 W8        29.98S
6HR MIN TEMP:  70; 6HR MAX TEMP:  74;

LONE ROCK      CLEAR     70  54  56 NW12      30.00R
6HR MIN TEMP:  70; 6HR MAX TEMP:  76;

MINERAL POINT  CLEAR     70  50  49 NW8       30.02S
MADISON        PTCLDY    70  50  49 NW6       29.97F
6HR MIN TEMP:  70; 6HR MAX TEMP:  75;

MIDDLETON      CLEAR     70  51  49 W7        30.00R
6HR MIN TEMP:  70; 6HR MAX TEMP:  76;

WATERTOWN      CLEAR     70  51  52 W8        29.96S
6HR MIN TEMP:  70; 6HR MAX TEMP:  76;

MONROE         CLEAR     70  50  49 NW8       30.00R
JANESVILLE     PTCLDY    72  50  46 NW13G18   29.97R
$$

WIZ051-052-058>065-066-070>072-230100-
SOUTHEAST WISCONSIN

CITY           SKY/WX    TMP DP  RH WIND       PRES   REMARKS
MILWAUKEE      PTCLDY    75  48  38 NW14      29.94R
6HR MIN TEMP:  75; 6HR MAX TEMP:  80;

WAUKESHA       CLEAR     68  48  49 NW12      29.96S
MILWAUKEE/TIMM CLEAR     72  43  35 NW13      29.95S
RACINE         CLEAR     73  49  42 NW10      29.96R
6HR MIN TEMP:  73; 6HR MAX TEMP:  79;

KENOSHA        CLEAR     73  48  41 NW9       29.95R
6HR MIN TEMP:  72; 6HR MAX TEMP:  79;

FOND DU LAC    CLEAR     69  48  47 W8        29.94R
6HR MIN TEMP:  69; 6HR MAX TEMP:  75;

SHEBOYGAN      PTCLDY    70  52  52 W8        29.92R
6HR MIN TEMP:  70; 6HR MAX TEMP:  75;

WEST BEND      CLEAR     70  46  43 W7        29.95R
JUNEAU         CLEAR     69  49  50 W5        29.97R
6HR MIN TEMP:  69; 6HR MAX TEMP:  73;

$$

LSZ147-162-230100-
LAKE SUPERIOR

STATION/POSITION TIME  TEMP    WIND        PRES    WAVE
                       AIR SEA DIR/SP/G            HT/PER
                 (UTC) (F)     (DEG/KT/KT) (MB)    (FT/S)
W MID LAKE BUOY  2350   62 59  280/ 17/ 21 1010.7F   2/ 5
DEVILS ISLAND    0000   62     290/ 11/ 14 1012.9F
PORT WING        2137   72     270/ 19/ 26 1013.5
SAXON HARBOR     2330   67     300/ 15/ 18 1012.5F
$$

LMZ867-665-643>646-230100-
LAKE MICHIGAN

STATION/POSITION TIME  TEMP    WIND        PRES    WAVE
                       AIR SEA DIR/SP/G            HT/PER
                 (UTC) (F)     (DEG/KT/KT) (MB)    (FT/S)
S GREEN BAY BUOY 0000   70 71  290/ 16/ 19 1012.0R
N MID LAKE BUOY  2350   68 67  280/ 17/ 21 1010.4R   3/ 5
NORTHPORT PIER   2340   70     290/  7/ 12 1010.5R
KEWAUNEE LAKESHO 0000   69     300/  5



USA.gov is the U.S. government's official web portal to all federal, state and local government web resources and services.